EXS74SN LGZA-EGGP

Flight info

Callsign EXS74SN
Flight time N/A
Altitude 36000
Route OSDES UY302 GARTA DCT YNN UL604 DIMIS DCT RODON DCT SIPAL DCT ZDA DCT MONFA DCT BAKOR DCT SOTOV DCT KPT DCT VEKIR DCT LIRSU DCT SPI DCT DENUT L610 LAM UN57 WELIN T420 ELVOS
Aircraft B738/M-SDE2E3FGHIRWXY/LB1

Departure

Time 2026-05-08 13:07
Airport Zakynthos International Airport Dionysios Solomos (LGZA)

Arrival

Time N/A
Airport Liverpool John Lennon Airport (EGGP)
Time Latitude Longitude Altitude Speed Heading
2026-05-08 12:26 37.75409 20.88521 20 ft 0 kts 73°
2026-05-08 12:57 37.75406 20.88508 19 ft 3 kts 74°
2026-05-08 12:58 37.75400 20.88484 22 ft 3 kts 74°
2026-05-08 12:58 37.75394 20.88459 21 ft 3 kts 64°
2026-05-08 12:58 37.75385 20.88442 22 ft 3 kts 21°
2026-05-08 12:58 37.75378 20.88439 21 ft 0 kts 343°
2026-05-08 13:01 37.75384 20.88437 19 ft 3 kts 343°
2026-05-08 13:01 37.75422 20.88422 19 ft 9 kts 343°
2026-05-08 13:02 37.75449 20.88410 20 ft 0 kts 333°
2026-05-08 13:02 37.75450 20.88409 20 ft 0 kts 332°
2026-05-08 13:02 37.75456 20.88401 20 ft 3 kts 301°
2026-05-08 13:03 37.75472 20.88357 20 ft 8 kts 292°
2026-05-08 13:03 37.75504 20.88284 20 ft 12 kts 314°
2026-05-08 13:03 37.75596 20.88238 22 ft 17 kts 344°
2026-05-08 13:03 37.75720 20.88191 25 ft 21 kts 344°
2026-05-08 13:04 37.75863 20.88138 23 ft 21 kts 343°
2026-05-08 13:04 37.75975 20.88095 20 ft 13 kts 342°
2026-05-08 13:04 37.76040 20.88032 19 ft 10 kts 349°
2026-05-08 13:04 37.76038 20.88080 19 ft 10 kts 181°
2026-05-08 13:05 37.76006 20.88085 19 ft 0 kts 160°
2026-05-08 13:06 37.76000 20.88087 21 ft 4 kts 162°
2026-05-08 13:06 37.75762 20.88177 22 ft 73 kts 163°
2026-05-08 13:06 37.75043 20.88444 19 ft 140 kts 164°
2026-05-08 13:06 37.74064 20.88854 611 ft 148 kts 162°
2026-05-08 13:07 37.73103 20.89287 1513 ft 139 kts 163°
2026-05-08 13:07 37.72222 20.89641 2313 ft 132 kts 170°
2026-05-08 13:07 37.71602 20.89824 2521 ft 148 kts 172°
2026-05-08 13:07 37.70475 20.90161 2718 ft 182 kts 170°
2026-05-08 13:08 37.69178 20.90593 3024 ft 200 kts 169°
2026-05-08 13:08 37.67795 20.91070 3474 ft 211 kts 171°
2026-05-08 13:08 37.66367 20.91573 4041 ft 215 kts 172°
2026-05-08 13:08 37.64915 20.92089 4651 ft 218 kts 172°
2026-05-08 13:09 37.63406 20.92627 5094 ft 232 kts 171°
2026-05-08 13:09 37.61821 20.92977 5683 ft 232 kts 192°
2026-05-08 13:09 37.60339 20.92168 5920 ft 242 kts 228°
2026-05-08 13:09 37.59439 20.90365 6477 ft 249 kts 252°
2026-05-08 13:10 37.59268 20.88202 7232 ft 251 kts 276°
2026-05-08 13:10 37.59925 20.86150 8034 ft 260 kts 302°
2026-05-08 13:10 37.61334 20.84656 8838 ft 274 kts 327°
2026-05-08 13:10 37.63192 20.83923 9599 ft 290 kts 346°
2026-05-08 13:11 37.65258 20.83949 10266 ft 303 kts 356°
2026-05-08 13:11 37.67432 20.84179 10486 ft 326 kts 358°
2026-05-08 13:11 37.69758 20.84475 10684 ft 347 kts 359°
2026-05-08 13:11 37.72211 20.84798 11049 ft 360 kts 359°
2026-05-08 13:12 37.74721 20.85132 11660 ft 365 kts 359°
2026-05-08 13:12 37.77258 20.85463 12352 ft 368 kts 359°
2026-05-08 13:12 37.79816 20.85788 13015 ft 371 kts 359°
2026-05-08 13:12 37.82398 20.86108 13659 ft 375 kts 358°
2026-05-08 13:13 37.85009 20.86425 14242 ft 379 kts 358°
2026-05-08 13:13 37.87643 20.86744 14851 ft 381 kts 358°
2026-05-08 13:13 37.90292 20.87063 15471 ft 384 kts 358°